アトラス彗星

C/2020 Y2 ( ATLAS )

English version
Home page
Updated on February 21, 2021

---------------------------------------------------------------------

・ プロフィール

発見日 2020年12月28日
発見光度 18.3等
発見者 Asteroid Terrestrial-Impact Last Alert System (ATLAS) search program

・ 写真集

・ 軌道要素

Epoch 2022 June 30.0 TT = JDT 2459760.5
T 2022 June 17.75257 TT                                 Rudenko
q   3.1327600            (2000.0)            P               Q
z  +0.0009626      Peri.  266.10327     -0.14805496     +0.88680769
 +/-0.0000094      Node    26.51480     +0.52177659     +0.44608089
e   0.9969843      Incl.  101.29615     -0.84013625     +0.12076409
From 113 observations 2020 Mar. 25-2021 Jan. 18, mean residual 0".4.

・ 星図

・ 光度変化

        m1 = -1.5 + 5 logΔ + 20.0 log r  [    ,-515]  (              〜2021年 1月18日)
        m1 =  6.0 + 5 logΔ + 10.0 log r  [-515,    ]  (2021年 1月18日〜              )

---------------------------------------------------------------------

軌道要素はM.P.E.C. 2021-B143に掲載されたものです。
星図はステラナビゲータ Ver.10 (アストロアーツ) で作成したものです。
光度グラフはComet for Windowsで作成したものです。

---------------------------------------------------------------------

Copyright(C) Seiichi Yoshida (comet@aerith.net). All rights reserved.